Regional Weather Roundup
Issued by NWS

Home | Current Version | Previous Version | Graphics & Text | Print | Product List | Glossary On
Versions: 1 2 3 4 5 6 7 8 9 10 11 12 13 14 15 16 17 18 19 20 21 22 23 24 25 26 27 28 29 30 31 32 33 34 35 36 37 38 39 40 41 42 43 44 45 46 47 48 49 50
000
ASUS45 KTFX 260319
RWRMT
MONTANA HOURLY WEATHER ROUNDUP
NATIONAL WEATHER SERVICE GREAT FALLS MT
819 PM MST SUN JAN 25 2015

NOTE: "FAIR" INDICATES FEW OR NO CLOUDS BELOW 12000 FEET WITH NO
SIGNIFICANT WEATHER AND/OR OBSTRUCTIONS TO VISIBILITY.

* THESE STATIONS ARE NOT UNDER NWS QUALITY CONTROL. THEY DO NOT
   REPORT WEATHER SUCH AS PRECIPITATION OR FOG.

MTZ001>007-043-260400-
WEST OF THE DIVIDE
CITY           SKY/WX    TMP DP  RH WIND       PRES   REMARKS
KALISPELL      MOCLDY    32  30  92 CALM      30.18R
MISSOULA       CLEAR     37  32  82 CALM      30.24R
BUTTE          CLEAR     34  27  76 SE5       30.31R WCI  29
MULLAN PASS    CLEAR     41  28  60 S6        30.26S
* ANACONDA     CLEAR     50  25  38 S15G24     N/A
* ESSEX        N/A       33  31  92 SE2        N/A
* EUREKA APT   CLOUDY    41  34  76 CALM      30.16S
* HAMILTON APT CLEAR     52  25  35 S12       30.25R
* LIBBY APT    PTCLDY    34  32  92 SE3       30.20R
* LINCOLN      N/A       45  27  49 SW3        N/A
* LOOKOUT PASS N/A       38  33  82 S2         N/A
* POLSON       N/A       45  32  60 S2         N/A
* RONAN APT    PTCLDY    39  39 100 N/A        N/A
* SEELEY LAKE  N/A       34  29  82 NE3        N/A
* THOMP F APT  CLEAR     26  24  92 N2         N/A
$$

MTZ008-052>055-260400-
SOUTHWEST MONTANA
CITY           SKY/WX    TMP DP  RH WIND       PRES   REMARKS
BOZEMAN        MOCLDY    39  28  65 NE6       30.26R WCI  35
DILLON         CLEAR     43  27  53 S12       30.33R
* W YELLOWSTON CLOUDY    31  29  92 N/A        N/A
* THREE FORKS  PTCLDY    37  36  96 N/A        N/A
* BOULDER HILL N/A       47  22  37 S7         N/A
* MONIDA PASS  N/A       25  25 100 SE12       N/A   WCI  14
* RAYNOLDS PAS N/A       30  13  49 SE23       N/A   WCI  17
* WHITEHALL    N/A       53  26  35 W12G21     N/A
* WISE RIVER   N/A       41  25  53 W9G15      N/A
$$

MTZ009>010-012-014-046-048-049-054-260400-
EAST SLOPES AND CENTRAL MONTANA
CITY           SKY/WX    TMP DP  RH WIND       PRES   REMARKS
CUT BANK       MOCLDY    46  30  54 W17       30.03R
GREAT FALLS    CLOUDY    52  30  43 SW17      30.08R
HELENA         MOCLDY    46  30  54 SW5       30.21R
MALMSTROM AFB  CLOUDY    54  30  40 SW23G30   30.08S
* CONRAD       CLOUDY    52  36  55 SW16G24    N/A
* DEARBORN     N/A       59  26  28 S4G10      N/A
* EAST GLACIER N/A       48  27  44 W15G25     N/A
* MONARCH      N/A       48  23  37 W12G18     N/A
* PENDROY      N/A       45  28  51 N1         N/A
* ROGERS PASS  N/A       45  25  45 SE13G21    N/A
* SWEET GRASS  N/A       48  30  50 W26G33     N/A
* WHITE SULPH  N/A       45  28  51 NE4        N/A
$$

MTZ011-013-016-021-035-040-045-047-050-051-260400-
NORTH CENTRAL MONTANA
CITY           SKY/WX    TMP DP  RH WIND       PRES   REMARKS
HAVRE          MOCLDY    46  34  63 W17G28    29.95R
LEWISTOWN      MOCLDY    45  30  56 SW22      30.05R
* N BAR RANCH  CLEAR     55  27  34 NW31G43   29.99R
* CHINOOK      MOCLDY    45  34  65 W9        29.93R
* CHESTER      N/A       46  32  58 SW1        N/A
* DENTON       N/A       44  29  56 SW18       N/A
* GEYSER       N/A       54  26  34 SW17G24    N/A
* JUDITH GAP   N/A       48  28  46 SW21G26    N/A
* LOMA         N/A       51  34  52 SW20G28    N/A
$$

MTZ017>020-022>027-061-062-260400-
NORTHEAST MONTANA
CITY           SKY/WX    TMP DP  RH WIND       PRES   REMARKS
GLASGOW        CLEAR     37  32  82 NW9       29.91R WCI  30
GLENDIVE       CLEAR     45  36  71 W16       29.89F
JORDAN         MOCLDY    39  34  82 W3        29.93R
SIDNEY         PTCLDY    39  34  82 S6        29.87R WCI  35
WOLF POINT     CLEAR     41  36  82 W12       29.89R
* BEAVER HILL  N/A       41  35  79 SW21G27    N/A
* CIRCLE       N/A       43  37  79 N/A        N/A
* LINDSAY DVD  N/A       47  36  66 W17G22     N/A
* NAVAJO       N/A       41  34  76 NW15G20    N/A
* PLENTYWOOD A PTCLDY    39  36  89 W10       29.79F WCI  32
* POPLAR APT   CLEAR     39  36  89 N/A       29.87R
* SACO         N/A       38  33  82 W10        N/A   WCI  31
$$

MTZ028>042-056>058-260400-
SOUTHCENTRAL AND SOUTHEAST MONTANA
CITY           SKY/WX    TMP DP  RH WIND       PRES   REMARKS
BAKER          PTCLDY    39  34  82 W15       29.92S WCI  31
BILLINGS       CLOUDY    59  28  31 W20G28    30.06R
LIVINGSTON     MOCLDY    55  27  34 SW26G39   30.19R
MILES CITY     CLEAR     37  34  89 NW9       29.97R WCI  30
* BIG TIMBER A MOCLDY    54  27  35 W20G30    30.15R
* FORSYTH APT  PTCLDY    46  34  63 CALM      29.98R
* LAUREL APT   CLOUDY    61  28  29 SW17G25    N/A
* ROUNDUP APT  CLOUDY    57  28  33 SW20G30    N/A
* ALZADA       N/A       42  33  71 W9         N/A
* HYSHAM       N/A       49  26  41 W2G7       N/A
* LAME DEER    N/A       51  29  43 W14G22     N/A
* REED POINT   N/A       59  30  33 W14G24     N/A
* ROSCOE HILL  N/A       59  16  18 W8G17      N/A
$$

REGIONAL REPORTS...DAKOTAS
CITY           SKY/WX    TMP DP  RH WIND       PRES   REMARKS
WILLISTON      PTCLDY    41  34  76 SW8       29.81R
DICKINSON      CLOUDY    45  36  71 W18       29.80F
BEACH          CLEAR     41  37  86 W17       29.88S
CROSBY         CLEAR     39  37  93 W20G25    29.74S WCI  29
TIOGA          FAIR      37  37 100 W17       29.78S WCI  27
WATFORD CITY   CLEAR     36  32  85 SW9       29.80R WCI  29
BISMARCK       CLOUDY    37  30  76 SW3       29.82F
GRAND FORKS    CLOUDY    27  19  72 S16       29.82F WCI  15
FARGO          CLOUDY    27  21  78 S17       29.86F WCI  14
BUFFALO SD     PTCLDY    41  34  76 W13       29.86R
RAPID CITY     PTCLDY    34  21  59 W6        29.95F WCI  29
$$

REGIONAL REPORTS...WYOMING/IDAHO/WASHINGTON
CITY           SKY/WX    TMP DP  RH WIND       PRES   REMARKS
GILLETTE       PTCLDY    39  30  70 W12       30.05S WCI  32
SHERIDAN       PTCLDY    45  27  49 VRB5      30.05R
CODY           CLOUDY    55  25  31 W13       30.17S
YELLOWSTONE LA CLOUDY    30  27  89 CALM      30.47R
SALMON         PTCLDY    25  21  85 CALM      30.41R
MULLAN PASS    CLEAR     41  28  60 S6        30.26S
SAND POINT     FOG       34  34 100 CALM      30.21S VSB 1/2
SPOKANE        FOG       39  39 100 NE6       30.19S VSB M1/4 WCI  35
$$

REGIONAL REPORTS...ALBERTA
CITY           SKY/WX    TMP DP  RH WIND       PRES   REMARKS
CALGARY        FAIR      41  30  65 NE3       29.91R
LETHBRIDGE     MOCLDY    52  30  43 SW21      29.94R
MEDICINE HAT   FAIR      39  34  82 S6        29.90R WCI  35
EDMONTON       MOCLDY    43  27  53 W8        29.85R
WATERTON GATE  N/A       57  25  29 W23G45     N/A
CARDSTON       N/A       54  28  37 W10G17     N/A
MILK RIVER     N/A       48  32  54 W20G25     N/A
$$

REGIONAL REPORTS...SASKATCHEWAN
CITY           SKY/WX    TMP DP  RH WIND       PRES   REMARKS
SWIFT CURRENT  CLEAR     37  32  82 SW9       29.84S WCI  30
REGINA         MOCLDY    37  32  82 W18       29.74R WCI  27
VAL MARIE      N/A       37  34  89 NW7        N/A   WCI  32
ASSINIBOIA     N/A       39  34  82 W12        N/A   WCI  32
CORONACH       N/A       41  36  82 W13        N/A

$$



USA.gov is the U.S. government's official web portal to all federal, state and local government web resources and services.